GW2085 Weather Reports


Display with metric or nautical units.
time (UTC)temp
F
wind
direction
speed
MPH
gust
MPH
rain 1hr
in
rain 24hr
in
rain mn
in
humidity
%
barometer
mb
20260507023054 63 276 0.0 2.0 0.00 0.00 0.00 66 1016.6
20260507021548 64 0 0.0 3.0 0.00 0.00 0.00 65 1016.5
20260507020051 65 240 1.0 5.0 0.00 0.00 0.00 64 1016.3
20260507014602 66 306 0.0 5.0 0.00 0.00 0.00 64 1016.2
20260507013051 67 319 1.0 6.0 0.00 0.00 0.00 64 1016.1
20260507011548 68 236 1.0 5.0 0.00 0.00 0.00 62 1016.0
20260507004559 70 342 2.0 6.0 0.00 0.00 0.00 57 1015.9
20260507003102 70 321 1.0 5.0 0.00 0.00 0.00 57 1015.9
20260507001556 70 272 3.0 4.0 0.00 0.00 0.00 56 1015.7
20260507000056 70 308 3.0 7.0 0.00 0.00 0.00 58 1015.6
20260506234555 71 323 2.0 7.0 0.00 0.00 0.00 56 1015.4
20260506233058 70 301 4.0 8.0 0.00 0.00 0.00 56 1015.5
20260506231601 71 263 2.0 7.0 0.00 0.00 0.00 56 1015.7
20260506230055 71 351 3.0 8.0 0.00 0.00 0.00 56 1015.6
20260506224553 70 249 3.0 9.0 0.00 0.00 0.00 57 1015.8
20260506223054 71 236 2.0 11.0 0.00 0.00 0.00 58 1015.8
20260506221552 71 338 3.0 7.0 0.00 0.00 0.00 57 1015.9
20260506220050 71 255 3.0 10.0 0.00 0.00 0.00 57 1016.1
20260506214603 72 319 3.0 8.0 0.00 0.00 0.00 54 1016.1
20260506213055 72 325 3.0 9.0 0.00 0.00 0.00 54 1016.2
20260506211550 72 290 4.0 9.0 0.00 0.00 0.00 54 1016.1
20260506210057 73 311 3.0 11.0 0.00 0.00 0.00 54 1016.2
20260506204553 73 221 3.0 8.0 0.00 0.00 0.00 53 1016.2
20260506203052 74 305 3.0 7.0 0.00 0.00 0.00 51 1016.3
20260506201551 74 247 3.0 9.0 0.00 0.00 0.00 49 1016.3
20260506194605 73 243 2.0 7.0 0.00 0.00 0.00 48 1016.8
20260506193056 73 143 3.0 12.0 0.00 0.00 0.00 50 1017.0
20260506191606 72 244 3.0 8.0 0.00 0.00 0.00 49 1017.3
20260506190053 72 174 3.0 6.0 0.00 0.00 0.00 50 1017.3
20260506184554 70 278 2.0 10.0 0.00 0.00 0.00 52 1017.4
20260506183120 70 240 3.0 7.0 0.00 0.00 0.00 52 1017.6
20260506181559 69 220 1.0 6.0 0.00 0.00 0.00 57 1017.7
20260506180114 68 336 2.0 6.0 0.00 0.00 0.00 58 1017.9
20260506174556 67 110 3.0 6.0 0.00 0.00 0.00 56 1018.0
20260506173121 67 296 2.0 5.0 0.00 0.00 0.00 58 1018.1
20260506171557 66 8 1.0 6.0 0.00 0.00 0.00 59 1018.2
20260506170100 64 75 1.0 4.0 0.00 0.00 0.00 62 1018.2
20260506164556 64 124 2.0 6.0 0.00 0.01 0.00 60 1018.3
20260506163103 64 225 1.0 3.0 0.00 0.01 0.00 65 1018.3
20260506161557 63 346 1.0 4.0 0.00 0.01 0.00 65 1018.3
20260506160056 62 269 0.0 3.0 0.00 0.01 0.00 66 1018.4
20260506154549 62 198 0.0 2.0 0.00 0.01 0.00 69 1018.4
20260506153051 59 67 1.0 2.0 0.00 0.01 0.00 72 1018.5
20260506151551 58 32 0.0 2.0 0.00 0.01 0.00 75 1018.5
20260506150058 56 65 0.0 3.0 0.00 0.01 0.00 82 1018.5
20260506144605 54 32 1.0 4.0 0.00 0.02 0.00 87 1018.5
20260506143054 52 0 0.0 2.0 0.00 0.02 0.00 91 1018.5
20260506141549 50 317 0.0 1.0 0.00 0.02 0.00 92 1018.4
20260506140054 49 0 0.0 0.0 0.00 0.02 0.00 92 1018.3
20260506134555 48 0 0.0 2.0 0.00 0.05 0.00 92 1018.3
20260506133057 47 0 0.0 0.0 0.00 0.05 0.00 91 1018.1
20260506131551 46 0 0.0 0.0 0.00 0.05 0.00 91 1017.9
20260506130052 46 0 0.0 0.0 0.00 0.05 0.00 91 1017.7
20260506124557 46 0 0.0 0.0 0.00 0.25 0.00 91 1017.6
20260506123053 46 0 0.0 0.0 0.00 0.25 0.00 91 1017.5
20260506121619 46 0 0.0 0.0 0.00 0.25 0.00 91 1017.5
20260506120050 46 0 0.0 0.0 0.00 0.25 0.00 90 1017.4
20260506114550 47 0 0.0 0.0 0.00 0.25 0.00 90 1017.4
20260506113051 47 0 0.0 0.0 0.00 0.25 0.00 90 1017.2
20260506111551 47 0 0.0 0.0 0.00 0.25 0.00 90 1017.3
20260506110051 48 0 0.0 0.0 0.00 0.25 0.00 90 1017.3
20260506104557 48 0 0.0 0.0 0.00 0.33 0.00 90 1017.3
20260506103055 48 0 0.0 0.0 0.00 0.33 0.00 89 1017.3
20260506101552 48 0 0.0 0.0 0.00 0.33 0.00 89 1017.3
20260506094608 48 344 0.0 0.0 0.00 0.46 0.00 89 1017.2
20260506093051 49 0 0.0 0.0 0.00 0.46 0.00 88 1017.1
20260506091552 49 0 0.0 0.0 0.00 0.46 0.00 88 1017.1
20260506090054 49 0 0.0 0.0 0.00 0.46 0.00 87 1017.2
20260506084556 50 0 0.0 0.0 0.00 0.47 0.00 87 1017.4
20260506083059 50 0 0.0 0.0 0.00 0.47 0.00 87 1017.5
20260506081550 51 0 0.0 1.0 0.00 0.47 0.00 87 1017.6
20260506080104 51 0 0.0 0.0 0.00 0.47 0.00 86 1017.8
20260506073106 51 0 0.0 0.0 0.00 0.48 0.00 85 1017.9
20260506071553 52 0 0.0 0.0 0.00 0.48 0.00 84 1017.9
20260506061551 53 0 0.0 0.0 0.00 0.48 0.48 80 1017.7
20260506044555 57 0 0.0 0.0 0.00 0.48 0.48 75 1017.2
20260506043056 57 0 0.0 0.0 0.00 0.48 0.48 74 1017.0
20260506041555 57 0 0.0 1.0 0.00 0.48 0.48 74 1016.9
20260506040055 57 0 0.0 2.0 0.00 0.48 0.48 74 1016.7
20260506034557 57 0 0.0 3.0 0.00 0.48 0.48 73 1016.5
20260506033106 57 0 0.0 2.0 0.00 0.48 0.48 72 1016.2
20260506031554 57 269 1.0 3.0 0.00 0.48 0.48 71 1016.1
20260506030104 57 249 1.0 3.0 0.00 0.48 0.48 69 1015.9
20260506024607 58 257 0.0 5.0 0.00 0.48 0.48 69 1015.6